Flag for U.S.A. Weather past 2 weeks in Portland, Maine, U.S.A.

Now
82 °F

Passing clouds.


Feels Like: 84 °F
Forecast: 62 / 77 °F
Wind: 9 mph from Southeast

Location: Portland - Portland International Jetport

Current Time: Sep 2, 2015 at 3:50:24 PM

Latest Report: Sep 2, 2015 at 2:51 PM


Visibility: 10 mi

Pressure: 29.90 "Hg

Humidity: 60%

Dew point: 67 °F

Location of PortlandLocation

Historic Weather in Portland — Graph

°F

Portland temperature yesterday

Maximum temperature yesterday: 79 °F (at 12:51 PM)
Minimum temperature yesterday: 63 °F (at 6:51 AM)
Average temperature yesterday: 69 °F

Past Weeks' High & Low Weather Summary

 TemperatureHumidityPressure
High86 °F (Aug 31, 2:51 PM)100% (Aug 20, 3:51 AM)30.18 "Hg (Aug 20, 3:51 AM)
Low55 °F (Aug 28, 5:51 AM)42% (Sep 1, 12:51 PM)29.82 "Hg (Aug 31, 4:51 PM)
Average70 °F84%30.01 "Hg
* Reported Aug 18 2:51 PM — Sep 2 2:51 PM, Portland, Weather by CustomWeather, © 2015

Note: Actual official high and low records may vary slightly from our data, if they occured in-between our weather recording intervals... More about our weather records

Advertising

Portland weather history for previous 24 hours

 ConditionsComfort  
Time TempWeatherWind HumidityBarometerVisibility
2:51 PM
Wed, Sep 2
82 °FPassing clouds.9 mph60%29.90 "Hg10 mi
1:51 PM83 °FSunny.3 mph57%29.91 "Hg10 mi
12:51 PM83 °FSunny.7 mph59%29.92 "Hg10 mi
11:51 AM80 °FSunny.5 mph56%29.94 "Hg10 mi
10:51 AM77 °FSunny.No wind62%29.95 "Hg10 mi
9:51 AM72 °FSunny.No wind73%29.96 "Hg10 mi
8:51 AM68 °FSunny.No wind84%29.97 "Hg10 mi
7:51 AM63 °FSunny.No wind90%29.98 "Hg10 mi
6:51 AM59 °FPassing clouds.No wind93%29.98 "Hg10 mi
5:51 AM58 °FPassing clouds.3 mph97%29.98 "Hg10 mi
4:51 AM59 °FClear.No wind96%29.98 "Hg10 mi
3:51 AM59 °FClear.No wind96%29.98 "Hg10 mi
2:51 AM61 °FClear.No wind97%29.99 "Hg10 mi
1:51 AM62 °FClear.6 mph93%30.01 "Hg10 mi
12:51 AM64 °FClear.No wind87%30.02 "Hg10 mi
11:51 PM
Tue, Sep 1
64 °FClear.5 mph90%30.03 "Hg10 mi
10:51 PM64 °FClear.5 mph90%30.03 "Hg10 mi
9:51 PM64 °FClear.5 mph90%30.03 "Hg10 mi
8:51 PM66 °FClear.3 mph84%30.03 "Hg10 mi
7:51 PM66 °FSunny.5 mph81%30.03 "Hg10 mi
6:51 PM68 °FSunny.6 mph73%30.02 "Hg10 mi
4:51 PM71 °FSunny.13 mph57%30.02 "Hg10 mi
3:51 PM73 °FSunny.12 mph57%30.02 "Hg10 mi
Weather by CustomWeather, © 2015

See weather overviewHow to use our weather pages